Regional Weather Roundup
Issued by NWS

Home | Current Version | Previous Version | Graphics & Text | Print | Product List | Glossary Off
Versions: 1 2 3 4 5 6 7 8 9 10 11 12 13 14 15 16 17 18 19 20 21 22 23 24 25 26 27 28 29 30 31 32 33 34 35 36 37 38 39 40 41 42 43 44 45 46 47 48 49 50

066
ASUS43 KFSD 270502
RWRSD

WEATHER ROUNDUP FOR SOUTH DAKOTA
NATIONAL WEATHER SERVICE SIOUX FALLS SD
1100 PM CST SUN FEB 26 2017

NOTE: "FAIR" INDICATES FEW OR NO CLOUDS BELOW 12,000 FEET WITH NO
SIGNIFICANT WEATHER AND/OR OBSTRUCTIONS TO VISIBILITY.


SDZ001>005-009-010-012>017-270600-
NORTHWEST AND NORTH CENTRAL SOUTH DAKOTA

CITY           SKY/WX    TMP DP  RH WIND       PRES   REMARKS
BUFFALO          N/A     22  19  89 E5        29.69S WCI  16
FAITH            N/A     25  24  96 NE8       29.79S WCI  16
MOBRIDGE       PTCLDY    27  21  78 NE9       29.79F WCI  18
$$

SDZ012>016-024>037-041>051-057-063-072>074-270600-
SOUTHWEST AND SOUTH CENTRAL SOUTH DAKOTA

CITY           SKY/WX    TMP DP  RH WIND       PRES   REMARKS
RAPID CTY ARPT CLOUDY    26  15  63 NW6       29.77R WCI  19
PIERRE         MOCLDY    27  15  61 W8        29.82S WCI  19
CUSTER         MOCLDY    16   6  65 W6        29.68F WCI   7
ELLSWORTH AFB  CLOUDY    27  16  64 W3        29.75S
PHILIP         PTCLDY    19  13  77 NW3       29.80F
PINE RIDGE     CLEAR      9   5  84 NW3       29.81F
SPEARFISH      FAIR      23  10  58 E7        29.72F WCI  15
WINNER         FAIR      26  14  60 SW14      29.85F WCI  14
$$

SDZ004>011-016>023-039-040-270600-
NORTHEAST SOUTH DAKOTA

CITY           SKY/WX    TMP DP  RH WIND       PRES   REMARKS
ABERDEEN       CLOUDY    26  21  81 N3        29.84S
WATERTOWN      CLOUDY    27  22  81 SE3       29.83S
BROOKINGS      CLEAR     28  22  78 SW10      29.85S WCI  19
SISSETON         N/A     24  19  81 S8        29.87F WCI  15
$$

SDZ017-020-022-023-036>040-048>070-270600-
SOUTHEAST SOUTH DAKOTA

CITY           SKY/WX    TMP DP  RH WIND       PRES   REMARKS
SIOUX FALLS    PTCLDY    28  22  78 SW8       29.91S WCI  20
HURON          PTCLDY    28  20  71 SW9       29.85S WCI  19
CHAMBERLAIN    CLEAR     29  20  69 SW7       29.86F WCI  21
MITCHELL       CLEAR     30  21  69 SW10      29.89R WCI  21
YANKTON        CLEAR     28  18  64 S7        29.93S WCI  21
$$

ABBREVIATIONS USED IN REMARKS
   TC - TEMPERATURE IN CELSIUS
  WCI - WIND CHILL INDEX
   HX - HEAT INDEX
  VSB - VISIBILITY





USA.gov is the U.S. government's official web portal to all federal, state and local government web resources and services.